RH
17 17 18 20 23 24 23 20 18 16 15 16 16 15 16 15 15 15 15 14 14 14 13 13 13 13 13 12 12 12 11 11 10 11 12 13 16 18 15 12 11 10 10 8 9 10 10 11 12 11 9 9 8 8 9 10 9 10 9 8 10 10 11 12 11 10 11 12 13 13 13 11 11 11 12 13 14 21 30 32 37 42 44 49 53 57 60 61
17 18 18 19 22 25 25 23 21 18 15 14 15 15 15 15 15 15 15 15 14 14 14 13 13 13 12 12 11 11 10 10 9 9 10 11 14 14 12 11 10 10 9 7 10 12 11 10 10 10 9 10 9 7 9 10 9 10 9 8 10 11 12 11 10 10 11 11 12 13 12 11 10 10 11 12 14 22 29 33 41 46 50 54 56 58 59 61
17 18 18 19 21 24 26 25 22 20 17 15 13 14 14 14 15 14 14 14 14 14 14 13 13 13 12 12 11 11 10 10 11 10 9 11 12 11 10 10 10 9 8 7 11 12 10 11 10 10 10 11 10 8 10 11 9 9 9 10 10 10 11 11 10 10 10 10 11 13 12 11 10 9 12 11 11 16 22 29 41 49 53 57 58 57 55 57
18 18 18 19 21 23 24 25 24 20 17 15 13 13 13 13 13 14 14 14 14 13 13 13 12 12 12 12 11 11 11 12 15 13 12 13 11 11 10 9 9 7 7 9 13 12 10 13 14 12 12 12 11 9 10 11 9 10 9 9 11 10 11 11 11 11 11 11 10 11 11 10 9 11 13 11 10 12 16 26 44 52 50 50 54 56 54 53
19 19 18 19 20 22 23 24 25 22 18 14 13 12 12 12 12 13 13 13 13 13 12 12 12 12 11 11 11 10 11 16 22 18 14 14 10 10 9 8 7 6 8 12 14 12 10 15 17 14 13 12 13 11 10 10 11 12 9 8 11 11 11 12 13 12 11 11 10 10 10 9 10 12 12 11 11 13 18 31 44 47 44 46 51 55 54 53
21 20 19 19 20 21 22 22 23 23 19 15 12 12 12 12 11 11 12 12 12 12 12 11 12 11 11 10 10 10 13 20 25 22 17 15 10 9 8 7 7 5 10 14 15 12 11 16 17 15 13 11 14 13 10 11 11 12 10 9 11 12 12 13 13 13 11 10 10 9 10 10 10 11 10 10 11 11 17 29 39 42 46 52 57 59 56 55
22 22 20 19 20 20 21 21 20 20 20 16 13 12 11 11 11 11 11 11 11 11 11 11 11 10 11 10 9 13 17 17 18 18 17 15 13 10 7 7 6 5 10 14 14 12 11 15 16 15 13 11 13 14 12 12 12 11 11 11 11 12 13 12 12 12 10 10 9 8 9 9 10 9 8 10 12 11 15 24 31 35 40 45 52 57 55 56
24 22 21 19 20 20 20 19 18 18 18 16 13 11 11 10 10 10 10 10 11 10 10 10 10 10 9 8 11 14 17 17 16 14 13 12 13 12 9 8 6 5 9 13 13 12 12 14 16 14 13 11 12 12 13 14 12 10 11 11 12 12 13 12 12 10 9 9 8 8 8 8 8 8 8 11 12 11 13 22 27 27 34 38 41 48 52 53
26 23 22 20 19 19 19 19 18 17 16 15 14 12 11 10 10 10 10 9 9 9 9 9 9 9 8 7 11 15 19 21 18 13 10 8 9 10 10 10 8 7 10 13 12 12 13 14 14 14 13 13 12 12 14 14 12 12 11 11 12 12 13 13 11 9 9 9 8 8 8 8 9 8 8 9 10 11 13 22 31 32 38 46 48 52 56 53
29 25 22 21 19 19 19 18 18 17 16 15 14 13 12 11 10 10 9 9 9 9 9 9 8 8 8 10 13 17 19 20 17 13 9 6 6 8 10 10 9 10 12 12 12 12 13 14 14 14 13 13 12 12 14 13 13 14 14 13 13 12 12 12 11 10 9 9 9 9 8 9 9 9 9 8 8 10 12 20 32 34 38 50 57 60 61 57
31 26 24 21 20 19 19 18 18 17 16 15 15 15 14 13 13 12 10 10 9 9 9 8 9 7 8 14 17 17 17 16 15 14 11 7 6 8 10 10 10 13 14 13 13 13 14 14 13 13 13 12 12 13 13 12 13 15 14 14 14 12 11 11 11 10 10 9 9 9 8 9 9 10 9 9 10 10 14 20 29 35 40 55 61 60 62 58
32 27 25 22 20 20 20 19 18 17 16 16 16 15 16 15 15 14 12 11 9 9 9 8 9 7 8 15 17 14 14 14 13 13 13 10 8 10 11 10 10 12 15 15 14 13 13 13 12 12 13 13 13 13 13 11 11 13 13 12 12 11 10 9 9 9 10 9 8 9 9 9 9 9 8 8 10 11 15 21 28 38 45 57 62 59 62 58
33 28 25 23 21 20 21 20 19 18 17 17 17 17 17 16 16 15 13 12 11 10 9 8 9 7 12 19 15 11 12 12 12 13 14 12 10 12 12 11 10 11 15 17 15 14 14 12 12 13 14 13 13 15 15 13 11 12 12 11 10 11 10 9 9 10 9 10 10 11 11 11 9 9 8 8 10 13 19 22 27 37 43 52 59 58 59 58
33 29 26 24 22 21 21 20 19 18 18 18 18 19 18 17 16 15 14 14 13 12 10 9 8 9 18 19 12 11 11 11 13 14 14 13 12 12 12 12 11 12 14 17 17 15 13 13 12 13 14 12 14 18 17 14 13 12 12 12 11 11 10 10 10 11 10 11 11 11 11 10 9 9 9 9 9 13 19 22 26 33 40 47 53 56 58 56
34 29 27 25 23 22 21 21 19 19 19 19 20 20 19 18 17 16 15 15 14 14 13 12 9 12 20 18 12 13 10 10 12 13 14 13 13 14 14 12 11 12 12 13 15 14 11 11 11 11 12 11 14 17 17 16 14 13 13 13 13 11 10 12 11 10 11 12 11 12 11 8 9 11 10 11 12 13 18 21 24 29 36 41 48 58 60 54
35 31 29 27 24 22 22 20 20 19 19 21 21 21 20 19 19 18 17 16 16 16 15 17 17 15 19 18 17 15 10 11 11 11 14 13 14 18 16 13 12 12 11 11 12 11 9 9 9 9 11 12 13 14 16 17 15 14 14 13 13 14 15 16 14 14 15 14 12 12 11 9 12 14 11 13 13 13 18 19 22 26 30 35 46 59 61 55
36 31 30 28 26 24 22 21 20 19 20 21 21 22 21 21 20 19 19 18 19 18 17 23 27 22 19 18 16 15 12 12 9 9 13 12 14 21 20 15 12 11 12 13 12 11 11 9 10 11 11 13 15 15 16 18 16 15 15 14 13 15 20 21 19 20 20 18 16 15 12 10 13 15 14 15 15 16 19 18 20 25 26 30 45 59 63 59
37 33 31 29 27 24 23 21 19 19 20 21 22 23 22 21 20 20 22 23 23 24 21 24 27 24 24 20 16 17 16 14 11 9 11 12 13 20 23 18 14 16 16 17 15 13 14 13 12 13 12 13 16 18 16 16 16 16 17 18 17 17 19 21 21 23 24 21 19 16 13 11 11 15 20 21 18 18 20 18 18 24 28 30 38 51 62 64
38 34 32 30 27 24 23 22 19 19 20 21 23 22 23 25 27 26 27 29 30 28 26 29 26 21 24 24 19 21 21 19 14 10 11 12 11 14 19 19 18 21 21 21 20 16 16 15 14 14 13 12 13 16 17 15 14 18 24 25 25 25 23 22 23 23 24 23 21 18 15 14 12 13 19 23 21 17 17 17 17 19 26 30 28 37 55 67
40 36 33 31 28 24 23 22 20 19 20 21 22 23 30 35 39 42 38 36 33 25 24 32 28 19 20 22 21 24 25 23 17 14 13 13 12 13 16 19 20 24 24 23 22 18 16 15 14 13 12 13 13 14 16 16 14 18 26 25 24 29 27 26 26 24 24 25 25 22 17 15 13 12 16 20 20 19 15 15 16 17 25 32 29 32 48 62
42 38 35 32 28 25 24 22 21 20 20 22 21 26 36 36 37 44 41 36 33 26 22 27 26 22 21 21 23 25 25 24 20 19 20 17 15 15 17 18 22 24 22 22 25 23 17 15 14 11 12 14 15 15 15 16 15 17 21 21 22 26 27 27 26 25 26 25 26 26 20 16 13 13 15 15 16 19 18 15 16 17 23 32 35 36 42 50
43 40 36 33 29 26 24 22 20 19 20 22 22 26 34 33 32 34 32 29 27 23 21 21 23 23 21 21 22 23 22 22 21 22 24 22 18 17 18 18 21 22 19 21 28 28 21 16 13 12 14 16 15 15 16 15 16 16 18 20 22 24 26 28 27 25 26 25 25 25 23 20 16 15 15 13 12 15 18 18 16 16 20 24 30 36 37 39
43 40 37 35 31 27 25 23 22 21 21 23 24 28 33 33 31 30 28 26 23 21 21 20 21 21 18 19 20 19 20 20 21 23 24 23 19 17 18 18 18 20 20 21 25 30 28 19 14 13 15 18 17 15 17 20 20 19 21 23 23 22 22 24 24 25 27 26 26 27 25 22 19 17 16 15 14 13 16 18 16 15 18 19 21 30 34 34
41 39 37 35 32 29 26 24 23 24 24 23 24 29 33 32 29 30 29 26 23 22 23 22 20 20 18 17 17 18 17 15 18 23 23 21 19 17 18 18 17 19 23 25 24 28 28 22 21 21 18 18 19 17 19 24 25 23 23 23 22 20 16 19 23 25 28 28 30 31 27 22 20 19 17 16 16 15 13 15 16 15 17 17 16 23 30 31
39 38 35 33 32 29 26 28 30 32 31 28 28 29 30 30 30 32 30 28 28 24 22 22 19 19 19 18 18 17 17 14 15 21 23 20 18 18 17 18 20 21 24 25 24 25 26 23 28 31 23 17 17 20 22 25 24 22 21 18 17 17 16 20 26 28 28 29 30 33 30 25 21 19 18 18 18 18 16 14 15 15 15 17 15 20 26 26
39 37 34 31 30 27 29 37 38 35 35 32 31 31 29 31 32 31 31 31 33 31 27 23 20 20 21 20 19 16 17 17 12 15 21 20 18 20 21 21 22 22 23 23 23 24 24 23 26 30 26 20 18 22 25 25 22 20 19 17 16 16 15 19 24 26 28 29 28 32 33 28 23 21 21 24 24 22 22 19 17 18 18 18 16 17 21 23
39 39 35 31 30 27 30 40 38 32 35 35 33 33 32 34 32 31 37 38 33 35 33 25 21 22 22 22 19 17 22 22 14 12 16 19 18 20 25 27 25 23 23 22 21 23 25 24 23 24 24 23 23 24 24 22 22 21 17 17 21 24 24 21 19 19 23 25 24 24 28 25 20 18 20 26 28 25 25 23 23 24 22 22 22 21 24 27
40 39 37 33 31 28 28 33 33 32 36 38 37 37 34 34 33 34 47 50 37 35 36 29 25 25 25 24 20 19 25 25 19 14 13 17 19 18 23 27 27 25 22 23 22 23 26 24 23 26 25 24 25 25 22 19 20 20 17 20 27 30 29 25 20 18 19 21 19 17 22 25 20 19 22 26 28 27 26 26 27 27 23 26 29 29 29 29
41 38 37 36 32 34 34 30 28 31 37 39 38 37 34 34 34 38 52 55 41 35 37 33 29 27 25 25 23 22 24 23 22 21 17 17 19 18 21 25 28 27 22 21 21 23 29 26 24 32 34 27 25 23 20 19 19 18 18 24 30 27 23 23 20 19 19 21 19 16 21 25 23 25 30 30 29 29 29 30 31 29 29 32 32 33 33 30
40 37 36 35 33 41 43 33 28 30 36 39 37 35 35 35 38 46 52 47 40 37 36 34 32 29 24 23 23 24 24 24 26 24 21 19 18 17 20 25 28 27 26 23 20 22 34 37 29 30 32 27 23 23 20 19 20 21 20 22 28 25 22 23 20 18 20 20 18 16 19 24 24 24 28 32 33 33 33 34 36 34 33 37 36 36 37 33
39 36 35 34 35 40 43 39 37 37 38 38 36 34 35 36 43 54 49 35 35 38 32 31 31 28 25 23 25 26 25 28 28 25 23 22 20 18 19 24 26 27 29 28 24 22 30 38 33 27 28 26 25 24 22 21 22 23 23 21 24 24 22 22 19 18 20 19 17 16 19 27 24 20 27 34 34 35 34 34 38 38 36 39 42 40 38 37
39 37 35 35 35 37 42 45 44 44 43 38 34 33 38 40 41 50 47 33 33 37 31 31 31 28 27 25 27 29 28 29 30 26 25 23 22 19 17 22 26 26 29 31 31 28 25 28 27 26 27 26 26 26 23 23 24 23 24 23 24 23 24 25 23 22 21 20 18 16 20 29 28 27 35 41 41 40 37 35 37 39 40 41 43 42 43 43
42 40 38 38 37 35 41 47 46 44 42 36 32 33 42 48 38 37 44 39 35 36 35 34 32 28 27 24 26 32 33 32 30 28 27 25 24 22 18 21 25 27 28 30 33 34 30 26 23 26 30 26 26 27 24 25 26 24 23 24 24 23 28 32 29 27 26 25 27 25 25 28 31 39 43 44 46 44 42 42 42 40 40 43 45 44 46 46
42 40 39 38 38 36 38 45 43 38 36 33 31 35 46 53 42 32 37 38 33 35 35 33 30 27 25 24 26 34 38 37 34 32 30 27 26 26 22 21 25 26 26 28 33 37 39 36 29 29 33 29 25 24 23 27 32 30 25 25 25 23 27 32 31 32 34 33 35 36 34 28 34 48 49 45 46 43 42 48 52 51 50 53 56 51 46 46
38 38 38 37 38 37 35 38 33 28 33 31 29 39 45 46 43 35 34 36 34 34 33 29 27 25 24 23 25 32 39 41 40 36 33 30 27 27 26 24 24 25 26 27 33 38 41 41 36 33 34 33 29 24 21 27 34 36 31 26 24 23 25 29 32 36 38 36 35 36 37 36 42 53 52 47 46 42 41 48 57 64 63 61 60 53 49 51
36 41 40 35 35 34 31 31 26 23 31 32 33 41 38 32 39 39 36 37 35 31 28 25 24 23 22 21 23 30 36 40 42 41 38 33 28 25 25 25 24 24 25 27 30 34 38 40 38 35 36 36 34 29 23 24 31 36 36 30 24 22 26 31 33 32 33 34 35 34 35 38 44 51 52 49 50 50 50 52 59 65 63 61 58 54 59 61
35 46 46 39 36 33 30 28 24 26 30 32 39 42 34 30 36 35 33 33 31 28 24 22 21 20 21 22 24 28 32 34 37 41 43 40 35 31 26 25 24 21 23 26 29 33 35 38 37 35 38 37 34 33 29 25 25 31 36 34 29 25 27 32 35 34 32 32 33 33 35 40 45 52 56 55 57 61 60 58 63 64 61 61 59 58 65 67
37 49 55 50 42 35 32 28 26 28 28 33 43 42 37 37 35 30 30 30 29 29 23 21 24 22 20 23 28 30 30 32 33 37 44 44 41 39 35 33 30 23 21 23 30 36 36 36 36 33 37 38 34 33 35 31 26 25 29 34 37 35 31 30 31 32 34 35 35 33 35 46 54 58 60 59 61 64 63 61 65 66 64 62 59 61 69 71
38 54 63 56 44 36 32 29 28 28 27 35 45 42 40 41 35 30 31 30 29 26 20 21 29 30 24 24 32 34 33 36 36 34 40 44 46 46 41 40 38 32 27 25 27 35 36 36 37 34 34 38 37 35 35 34 30 26 25 28 35 39 38 35 32 30 32 35 37 34 37 54 65 62 62 62 63 66 65 66 70 71 70 68 64 67 73 73
42 66 76 59 42 35 32 30 30 27 29 37 41 39 37 35 32 29 27 27 26 24 22 25 31 32 28 27 33 38 39 41 41 40 41 42 49 53 46 42 44 41 40 37 32 32 34 36 38 37 36 37 39 38 34 32 32 30 26 24 27 32 34 36 37 36 33 33 37 39 48 64 68 62 64 66 64 64 63 67 72 73 75 78 74 73 73 70
48 73 82 60 41 36 33 32 31 28 31 37 39 39 37 34 37 35 28 24 24 25 27 31 34 34 31 29 32 38 43 44 41 42 44 44 50 57 54 50 49 48 47 45 40 37 38 38 38 38 39 38 37 38 36 34 34 34 30 25 24 27 31 35 37 38 36 37 43 47 56 68 67 63 69 73 69 66 65 67 72 73 76 80 78 75 73 69
57 74 80 61 43 38 32 31 34 34 37 43 42 43 40 36 39 38 31 24 20 22 26 27 31 34 33 32 32 36 40 40 40 42 44 48 52 56 58 56 54 56 57 53 48 45 42 40 39 39 42 43 42 41 40 38 37 36 35 32 28 26 28 32 37 41 41 43 48 48 53 65 66 65 74 81 76 71 69 69 70 70 72 73 73 72 71 69
62 76 82 66 47 42 39 39 43 44 49 53 49 47 42 34 32 33 31 26 22 23 25 23 25 28 29 29 29 32 35 34 37 41 43 49 55 56 58 60 59 61 65 62 57 50 43 40 42 43 43 44 45 44 42 40 39 38 37 38 36 33 29 28 34 42 47 49 50 49 54 66 68 66 75 82 79 75 72 69 67 66 67 69 69 70 69 68
71 82 82 65 51 52 57 59 56 53 56 56 51 52 48 36 32 36 35 32 30 29 26 23 24 26 25 27 28 29 32 33 33 37 40 48 59 62 62 64 65 65 66 67 63 55 51 47 45 48 52 50 47 47 45 44 44 44 45 47 47 48 46 41 39 43 47 48 48 49 60 73 73 70 75 80 79 78 76 72 69 66 66 67 68 68 68 66
83 88 78 62 55 61 67 68 63 60 60 57 53 54 53 42 33 32 35 38 37 34 33 29 29 29 28 30 30 26 29 34 33 35 41 46 55 62 64 64 66 65 66 68 64 58 59 59 54 55 60 60 60 61 58 55 52 49 51 52 50 53 59 56 50 51 53 50 47 50 63 76 76 72 75 77 75 76 74 71 70 67 65 63 60 61 64 64
87 87 77 64 58 62 67 67 63 61 60 57 51 49 50 45 35 26 29 37 36 33 35 35 34 37 34 32 34 30 29 32 29 30 38 44 49 56 60 63 63 62 62 63 62 59 60 62 61 61 64 65 68 70 65 61 60 58 56 56 53 56 64 63 58 64 70 66 60 58 63 74 78 73 72 73 72 74 75 72 69 68 66 63 57 56 60 61
90 82 74 64 54 55 62 62 58 57 57 50 45 42 40 41 42 33 25 30 35 31 32 34 35 40 40 36 37 37 33 32 31 29 33 40 47 50 54 60 61 59 59 58 58 60 61 62 62 61 63 65 65 68 68 65 64 65 64 62 60 60 66 70 69 72 76 78 77 73 69 76 82 75 70 69 70 74 76 74 73 72 71 68 62 61 62 61
86 77 70 61 54 52 57 56 51 50 49 43 41 40 36 36 45 42 27 27 36 35 34 36 35 37 41 39 38 37 34 35 38 38 38 43 49 49 53 60 61 57 57 56 53 54 60 64 64 62 64 65 63 67 76 76 70 68 67 64 63 64 70 77 77 72 68 72 79 80 78 82 82 75 70 67 68 72 72 72 74 75 74 72 68 66 68 68
84 78 71 61 56 51 50 52 49 45 43 39 37 38 37 37 42 42 34 33 41 41 38 40 39 38 41 41 39 38 36 36 40 44 48 52 53 53 57 66 67 59 57 58 52 48 52 58 61 62 63 64 62 63 75 83 78 68 64 64 68 73 77 81 80 75 70 70 74 76 77 79 75 70 68 65 66 72 72 70 72 73 75 76 72 71 74 75
83 81 71 60 56 51 48 49 45 42 40 37 35 36 39 40 39 41 42 44 47 45 41 41 41 41 43 44 45 45 42 41 44 48 53 55 54 51 53 61 65 59 56 56 53 47 47 50 54 58 57 58 60 59 67 83 84 72 67 67 71 77 80 81 82 82 79 78 76 74 77 78 73 67 67 67 68 73 73 71 72 73 74 75 74 73 76 79
79 78 67 58 54 49 46 42 37 39 39 33 34 36 39 43 43 43 46 45 44 44 42 41 41 41 43 45 45 46 44 43 46 50 52 51 50 49 47 48 50 51 50 53 52 47 46 46 47 50 51 53 57 58 66 81 82 77 78 76 73 77 80 82 83 83 82 81 80 78 79 79 74 70 70 71 71 73 73 73 73 72 72 73 73 73 75 78
78 73 60 56 53 43 37 33 32 43 46 36 37 40 42 48 47 41 42 40 36 39 41 37 35 37 40 42 41 40 41 42 44 47 49 47 44 43 44 42 41 42 46 51 53 50 47 46 44 45 47 54 61 63 70 81 82 83 87 83 79 80 81 82 84 82 81 82 82 83 80 75 72 73 73 73 73 72 72 74 75 74 72 72 72 72 73 75